Temp
12 13 13 13 13 13 14 14 14 14 14 15 15 15 15 15 16 16 16 16 16 16 16 16 16 16 15 15 13 13 14 14 15 15 16 16 15 15 17 16 15 17 15 14 13 12 11
12 12 13 13 13 13 13 14 14 14 14 15 15 15 15 15 16 16 16 16 16 16 16 16 16 15 15 15 13 13 13 14 14 15 15 15 15 15 14 15 16 14 14 14 13 12 10
12 12 13 13 13 14 14 14 14 14 14 14 15 15 15 15 15 16 16 16 16 15 15 15 15 14 15 13 13 13 13 13 14 14 14 15 15 14 14 15 12 13 15 14 14 13 11
12 12 12 13 13 13 13 13 14 14 14 14 15 15 15 15 15 15 16 16 15 15 15 14 14 14 12 12 12 12 12 13 13 13 14 14 14 14 13 12 13 15 15 17 14 13 11
12 12 12 13 13 13 13 13 13 14 14 14 14 14 15 15 15 16 15 15 15 14 14 14 14 14 11 12 12 12 12 12 12 13 13 13 14 12 13 16 16 15 18 16 15 13 13
12 12 12 12 12 12 13 13 13 13 13 14 14 14 14 15 15 15 15 15 14 14 14 14 14 14 12 11 11 11 12 12 12 13 13 13 12 15 15 17 18 18 17 15 16 14 13
12 12 12 12 12 12 12 13 13 13 13 13 14 14 14 15 15 15 15 15 14 13 14 11 11 11 11 11 11 11 11 12 12 12 15 11 16 17 16 14 14 15 15 16 15 12 13
12 12 12 12 12 12 12 12 12 13 13 13 14 14 14 15 15 15 15 15 14 13 11 11 11 11 11 11 11 11 12 12 12 13 12 14 16 13 12 12 13 14 14 15 13 12 13
11 11 12 12 12 12 12 12 12 13 13 13 13 14 14 14 15 14 14 14 13 12 12 10 10 10 11 11 10 11 11 11 12 13 12 15 13 11 12 12 13 14 14 14 14 11 9
11 11 11 11 12 12 12 12 12 13 13 13 13 13 14 14 14 14 14 13 12 12 14 12 11 10 10 10 10 10 11 11 11 13 12 13 11 12 12 12 13 14 12 11 11 12 14
11 11 11 11 11 12 12 12 12 12 12 13 13 13 13 14 14 13 13 12 12 11 15 11 11 10 10 10 10 10 10 10 12 12 12 14 11 11 11 12 12 13 10 10 11 12 10
10 11 11 11 11 11 12 12 12 12 12 12 12 13 13 13 13 13 13 12 11 14 13 12 10 10 11 10 9 9 10 10 9 10 10 11 8 10 11 9 10 10 10 10 9 10 9
10 10 10 10 11 11 11 11 11 12 12 12 12 12 12 13 13 13 12 12 15 15 11 12 11 10 10 11 10 9 9 11 12 11 13 10 10 9 8 10 9 10 11 12 12 9 12
10 10 10 10 10 10 11 11 11 11 12 12 12 12 12 12 12 12 12 13 14 13 13 9 10 10 11 10 10 9 10 11 7 9 11 12 12 9 8 9 11 10 11 13 12 13 14
9 10 10 10 10 10 10 10 11 11 11 11 11 12 12 12 12 12 12 13 14 13 10 10 9 11 11 9 10 10 10 10 7 7 12 11 11 7 6 7 8 10 10 9 10 12 9
9 9 9 9 9 9 9 10 10 11 11 11 11 11 11 11 11 11 13 12 11 8 8 9 13 11 12 10 10 10 10 6 6 4 5 8 10 6 6 6 6 8 8 9 9 8 9
9 9 9 9 9 9 9 9 10 10 11 10 11 11 10 10 10 10 12 12 9 6 7 10 11 11 11 11 10 10 11 5 5 4 4 6 8 7 6 7 8 7 8 7 7 7 7
9 9 9 9 8 8 8 9 9 9 10 10 10 10 10 10 10 5 10 8 6 6 5 7 7 9 10 9 9 9 9 6 3 4 6 5 7 8 9 3 3 4 6 7 8 8 6
8 8 8 9 9 8 8 8 8 9 9 10 10 9 8 9 11 9 5 6 5 5 6 6 7 6 6 8 8 7 6 1 2 4 5 5 7 8 7 4 3 4 4 3 2 3 5
7 8 8 8 9 9 8 8 9 8 9 8 9 9 7 7 6 8 7 8 7 3 4 4 5 5 5 6 5 6 5 2 1 3 2 3 5 8 8 8 4 4 3 3 3 3 5
6 7 8 8 8 9 8 8 8 8 7 7 9 8 7 8 6 6 6 7 6 6 3 3 5 5 6 7 5 6 4 2 1 2 2 4 4 3 4 3 2 3 3 3 2 3 3
6 6 6 7 7 8 9 8 7 7 6 7 8 7 5 4 4 4 4 6 7 4 5 4 5 5 5 6 6 6 4 4 5 1 3 1 3 1 1 1 0 0 1 1 1 1 1
6 6 6 6 7 8 8 7 7 6 6 6 7 7 8 3 3 5 5 7 6 4 1 2 3 4 3 4 1 0 -0 0 2 3 2 2 2 1 3 -1 -1 1 -0 -0 -1 -3 -2
5 6 7 6 7 7 7 7 6 6 6 5 6 6 6 5 3 4 3 3 3 3 3 0 1 3 -0 0 0 -0 -1 -1 -1 -1 -0 0 1 1 1 -1 1 -5 -6 -6 -5 -5 -8
5 5 6 7 7 7 7 6 6 6 5 5 4 5 6 3 3 2 2 1 -0 -1 -0 -0 -1 -0 -0 -0 2 2 1 0 -2 -2 -2 -1 1 1 -0 -1 1 -6 -6 -6 -5 -4 -9
4 5 5 6 6 6 6 6 5 5 5 4 3 3 5 3 1 1 1 0 1 1 -0 -2 -2 -1 -1 1 3 3 4 2 -0 -2 -3 -2 -2 0 -3 -2 0 -4 -6 -8 -9 -4 -10
4 5 5 5 5 4 5 5 4 4 4 4 3 2 4 3 -1 -0 0 0 0 -0 1 -2 -2 -2 -2 1 2 2 2 -0 1 -1 -2 -2 -2 -2 -1 -2 -2 -7 -7 -8 -5 -5 -10
4 5 6 5 5 5 4 4 4 4 4 4 2 2 2 2 -3 -2 -1 -1 -1 -1 1 -3 -1 -3 -1 0 2 1 0 -1 -1 -2 -2 -1 -2 -3 -3 -3 -4 -8 -8 -6 -8 -10 -11
4 5 7 7 5 3 3 3 3 3 3 2 2 1 1 1 -4 -3 -2 -2 -1 -1 -1 -3 -2 -2 -1 -0 -1 -1 -1 -3 -2 -1 -5 -3 -3 -2 -2 -3 -9 -9 -9 -9 -10 -11 -11
Height
1560 1560 1560 1560 1559 1559 1558 1557 1556 1556 1555 1555 1553 1553 1551 1551 1549 1547 1546 1544 1543 1542 1541 1540 1539 1540 1541 1541 1542 1541 1541 1541 1541 1541 1541 1541 1541 1542 1542 1544 1545 1545 1550 1551 1553 1552 1554
1559 1560 1560 1560 1559 1558 1557 1557 1556 1556 1555 1554 1553 1552 1551 1549 1548 1547 1545 1544 1542 1541 1540 1539 1538 1539 1541 1542 1542 1541 1541 1541 1541 1541 1540 1540 1540 1541 1543 1545 1544 1548 1549 1551 1554 1556 1558
1559 1559 1559 1559 1558 1558 1557 1557 1556 1555 1554 1554 1553 1552 1550 1549 1548 1546 1544 1542 1541 1540 1540 1539 1539 1539 1540 1543 1542 1541 1541 1541 1541 1541 1541 1541 1542 1543 1543 1544 1547 1548 1549 1552 1554 1555 1557
1557 1558 1559 1558 1557 1557 1557 1556 1555 1554 1554 1553 1552 1551 1550 1549 1547 1545 1543 1542 1541 1540 1540 1539 1539 1540 1541 1542 1542 1542 1542 1542 1542 1542 1542 1542 1542 1543 1546 1548 1549 1549 1550 1547 1553 1554 1558
1556 1556 1557 1557 1556 1556 1555 1555 1555 1554 1553 1553 1552 1551 1549 1548 1547 1545 1543 1542 1541 1540 1540 1539 1540 1541 1544 1543 1544 1544 1543 1543 1543 1543 1543 1544 1544 1546 1549 1546 1546 1547 1539 1546 1552 1555 1556
1554 1555 1555 1555 1555 1555 1555 1554 1554 1553 1553 1552 1551 1550 1549 1547 1546 1544 1543 1541 1540 1540 1540 1541 1542 1545 1546 1545 1544 1544 1544 1544 1544 1544 1545 1546 1546 1545 1547 1544 1541 1540 1543 1546 1543 1551 1553
1554 1553 1553 1553 1553 1553 1553 1554 1554 1553 1552 1551 1551 1550 1548 1546 1545 1543 1542 1541 1544 1543 1542 1544 1546 1546 1546 1546 1545 1545 1544 1544 1544 1545 1544 1547 1544 1541 1544 1548 1548 1546 1546 1545 1548 1553 1552
1552 1553 1553 1552 1552 1552 1552 1552 1552 1552 1551 1550 1549 1549 1548 1545 1543 1543 1542 1541 1541 1544 1545 1546 1547 1547 1547 1546 1546 1545 1544 1546 1545 1545 1547 1546 1543 1549 1550 1551 1549 1548 1547 1546 1550 1553 1552
1550 1550 1551 1551 1551 1550 1550 1550 1550 1550 1550 1549 1548 1547 1546 1545 1543 1543 1541 1541 1541 1542 1545 1549 1548 1548 1548 1548 1547 1546 1545 1544 1544 1545 1546 1543 1547 1549 1549 1550 1549 1546 1544 1544 1547 1551 1555
1548 1548 1549 1549 1550 1550 1550 1549 1548 1548 1548 1547 1547 1546 1545 1543 1545 1542 1541 1541 1541 1541 1542 1551 1550 1550 1550 1548 1548 1546 1546 1547 1546 1545 1547 1545 1548 1547 1547 1546 1547 1544 1548 1550 1551 1549 1542
1547 1547 1547 1547 1547 1547 1548 1549 1548 1547 1546 1545 1544 1544 1544 1543 1542 1542 1543 1541 1540 1541 1547 1553 1550 1549 1548 1550 1549 1548 1547 1546 1545 1545 1547 1541 1547 1548 1548 1547 1549 1546 1552 1552 1551 1548 1551
1545 1545 1545 1546 1546 1545 1545 1546 1546 1546 1545 1544 1543 1542 1542 1542 1541 1541 1540 1540 1540 1542 1550 1548 1548 1548 1548 1548 1549 1548 1548 1548 1548 1549 1549 1547 1551 1551 1550 1553 1553 1553 1552 1553 1554 1550 1550
1541 1543 1544 1544 1544 1544 1543 1543 1543 1543 1543 1543 1542 1542 1541 1540 1541 1540 1539 1540 1539 1539 1549 1547 1546 1547 1547 1547 1548 1549 1549 1548 1548 1548 1543 1548 1549 1551 1552 1550 1552 1552 1549 1542 1540 1548 1527
1537 1538 1540 1541 1541 1541 1541 1541 1542 1541 1540 1540 1540 1540 1540 1539 1539 1539 1539 1540 1544 1540 1540 1547 1547 1547 1544 1547 1548 1548 1547 1544 1554 1551 1545 1543 1542 1549 1553 1550 1547 1548 1547 1539 1535 1523 1516
1530 1533 1536 1538 1538 1539 1539 1539 1539 1539 1539 1538 1538 1537 1537 1537 1537 1538 1540 1541 1533 1537 1542 1544 1547 1544 1544 1548 1548 1546 1547 1547 1552 1553 1543 1544 1542 1553 1555 1555 1554 1550 1549 1551 1543 1529 1537
1525 1527 1530 1532 1534 1535 1536 1536 1536 1537 1537 1537 1537 1536 1535 1535 1536 1537 1538 1538 1539 1543 1544 1545 1538 1543 1539 1544 1544 1543 1542 1552 1552 1555 1556 1550 1542 1554 1555 1556 1556 1552 1555 1550 1549 1551 1531
1521 1522 1525 1527 1528 1530 1531 1532 1534 1534 1534 1535 1535 1535 1534 1534 1535 1538 1536 1536 1539 1541 1543 1543 1541 1540 1540 1540 1542 1541 1539 1552 1553 1555 1556 1555 1552 1553 1555 1551 1546 1553 1550 1554 1555 1551 1543
1516 1518 1521 1522 1524 1526 1527 1529 1530 1530 1531 1533 1534 1534 1532 1533 1537 1539 1537 1539 1541 1543 1544 1544 1544 1542 1541 1543 1542 1544 1541 1548 1553 1553 1551 1555 1551 1545 1543 1560 1561 1558 1552 1549 1543 1540 1548
1515 1514 1516 1518 1519 1521 1523 1524 1526 1527 1528 1530 1531 1530 1530 1532 1530 1534 1539 1540 1541 1543 1542 1544 1545 1546 1548 1545 1544 1546 1549 1556 1555 1555 1553 1555 1550 1541 1540 1559 1560 1556 1556 1558 1560 1558 1543
1509 1513 1513 1513 1517 1517 1519 1520 1522 1523 1524 1528 1529 1528 1529 1530 1530 1531 1535 1536 1539 1542 1543 1545 1546 1547 1548 1547 1550 1547 1551 1557 1557 1556 1555 1555 1551 1539 1531 1533 1549 1552 1554 1556 1553 1548 1534
1501 1504 1507 1508 1510 1512 1513 1516 1518 1519 1522 1526 1526 1524 1524 1526 1529 1530 1533 1534 1535 1537 1542 1541 1545 1543 1544 1543 1546 1546 1552 1556 1558 1558 1558 1556 1550 1552 1547 1549 1551 1548 1548 1550 1550 1544 1543
1496 1499 1502 1503 1503 1507 1509 1510 1512 1514 1516 1521 1521 1521 1523 1526 1528 1531 1532 1531 1529 1534 1536 1537 1538 1538 1540 1539 1538 1540 1546 1550 1549 1557 1557 1558 1550 1557 1551 1550 1552 1550 1545 1546 1547 1547 1545
1491 1493 1494 1495 1497 1500 1503 1504 1507 1508 1510 1516 1517 1517 1516 1525 1527 1530 1528 1525 1528 1531 1536 1535 1536 1537 1540 1542 1544 1546 1549 1549 1549 1550 1553 1557 1557 1557 1536 1557 1555 1538 1541 1543 1547 1554 1553
1486 1485 1485 1488 1491 1495 1496 1498 1501 1504 1506 1507 1512 1514 1514 1518 1522 1524 1524 1526 1529 1532 1532 1536 1537 1536 1541 1541 1543 1546 1549 1550 1552 1553 1553 1555 1556 1557 1549 1555 1542 1558 1559 1558 1555 1558 1563
1482 1482 1479 1482 1485 1488 1490 1492 1497 1499 1501 1503 1508 1510 1509 1513 1515 1522 1523 1526 1530 1532 1535 1537 1538 1538 1538 1542 1545 1543 1545 1547 1551 1554 1555 1557 1555 1554 1552 1552 1537 1558 1559 1558 1556 1555 1566
1479 1476 1476 1476 1479 1483 1486 1489 1492 1495 1497 1499 1502 1505 1507 1509 1515 1517 1523 1524 1526 1531 1537 1537 1537 1538 1539 1541 1539 1536 1527 1532 1544 1552 1556 1558 1558 1553 1561 1554 1533 1553 1562 1560 1560 1552 1565
1474 1474 1473 1472 1473 1476 1480 1485 1488 1490 1492 1495 1497 1501 1505 1507 1511 1515 1517 1520 1522 1526 1530 1535 1537 1541 1541 1539 1535 1535 1532 1542 1537 1543 1551 1555 1558 1553 1551 1549 1545 1558 1561 1560 1557 1558 1563
1470 1469 1468 1466 1467 1471 1476 1479 1482 1484 1488 1491 1495 1497 1503 1506 1512 1514 1513 1516 1519 1522 1525 1531 1535 1538 1540 1538 1532 1533 1536 1540 1543 1547 1548 1547 1551 1552 1554 1551 1547 1557 1561 1558 1558 1559 1560
1466 1464 1461 1460 1462 1468 1473 1477 1479 1481 1484 1487 1490 1496 1500 1508 1514 1513 1513 1515 1517 1520 1523 1524 1526 1530 1531 1533 1536 1536 1535 1543 1540 1536 1552 1547 1545 1542 1543 1541 1551 1554 1555 1556 1556 1558 1558
Wind_Speed
4 4 4 4 5 5 5 5 5 4 5 5 6 7 7 8 9 9 10 9 8 7 5 3 1 0 2 4 3 2 3 2 2 1 1 2 3 3 4 4 2 5 5 6 7 15 15
2 1 2 3 3 4 4 4 4 4 4 5 6 6 7 8 9 9 9 9 8 7 5 3 1 3 3 2 1 2 2 3 1 1 2 3 4 8 7 3 1 4 6 6 6 11 12
2 1 0 1 3 3 4 4 4 4 4 5 5 6 7 8 9 9 10 9 7 6 5 4 3 5 6 4 1 2 2 2 2 3 4 5 6 2 6 5 4 5 5 5 6 11 5
4 3 2 1 2 3 3 4 4 4 4 5 6 6 7 8 9 10 9 9 6 5 5 5 4 4 4 5 4 4 2 3 3 4 5 5 6 7 3 6 3 2 2 5 4 11 7
5 4 3 3 2 2 2 3 4 4 4 5 5 6 7 9 10 10 9 7 5 4 4 4 3 4 4 5 3 3 4 2 3 3 4 5 3 4 4 3 3 2 4 4 4 4 5
6 5 4 3 2 3 3 4 3 4 4 5 6 7 8 9 10 9 10 7 4 4 3 3 5 4 3 1 2 3 2 1 2 3 3 2 3 2 3 5 4 4 4 3 5 6 4
7 7 5 4 3 2 3 4 5 5 5 6 7 8 8 9 10 9 9 5 3 2 8 6 4 4 3 3 6 5 3 4 3 3 1 3 3 3 1 1 1 0 2 5 1 2 3
6 6 5 5 4 3 2 4 5 5 6 6 7 8 9 9 8 7 7 3 3 2 5 6 5 5 4 2 2 5 4 2 2 2 0 2 1 2 3 3 2 2 3 6 2 1 3
6 6 5 5 4 3 3 3 3 5 6 6 7 7 8 9 6 7 7 5 3 3 3 3 4 3 2 3 2 5 3 3 3 3 2 1 3 3 1 3 3 5 8 5 4 1 2
5 6 6 5 5 5 5 4 4 4 5 5 7 7 7 7 3 7 5 5 3 2 2 3 2 3 2 1 2 3 3 1 1 2 3 2 2 5 5 5 6 8 1 2 3 4 5
6 5 4 5 5 5 5 6 5 4 4 5 5 6 6 5 4 3 3 3 2 2 2 1 1 0 2 1 1 1 3 1 2 4 4 2 5 4 5 2 5 2 2 1 2 6 5
8 6 4 4 4 5 5 5 6 6 6 5 5 5 5 4 3 3 3 2 1 1 3 3 2 1 1 2 1 3 2 2 2 1 1 2 2 1 3 3 1 4 2 1 2 3 6
13 9 7 6 4 4 4 4 4 5 6 6 5 5 4 3 2 2 3 1 1 2 2 3 2 1 0 0 1 4 2 1 2 2 2 1 2 1 0 3 2 3 3 4 4 4 5
18 15 12 10 7 5 4 3 4 4 4 4 4 4 4 3 2 1 2 1 3 0 3 1 2 1 2 0 2 0 1 2 2 1 1 3 3 5 1 1 2 5 3 4 7 9 13
23 20 18 15 12 10 7 4 4 4 4 5 4 4 4 3 2 1 2 1 2 3 3 4 2 2 2 2 2 1 2 1 1 1 4 2 2 2 2 2 2 4 6 3 6 9 7
24 23 21 21 17 13 11 7 5 5 5 4 4 5 4 3 3 4 2 3 1 2 2 1 3 1 3 3 3 2 2 2 3 1 1 1 4 1 2 1 3 3 2 2 2 6 8
14 14 16 19 19 15 15 12 10 7 6 5 3 2 2 2 4 2 2 3 2 3 4 3 3 3 4 3 4 4 2 3 1 4 0 1 2 3 2 4 2 3 3 2 2 4 5
12 10 12 15 17 15 13 12 11 9 7 5 3 2 3 6 2 1 2 1 1 2 2 2 2 3 4 5 4 4 4 1 2 4 4 2 1 4 3 2 1 1 2 4 6 7 3
16 16 18 14 15 14 13 8 8 9 7 7 4 3 5 8 3 3 1 1 1 2 2 2 3 2 1 3 3 3 1 2 1 3 3 5 3 4 4 3 2 4 3 2 2 0 12
20 16 19 18 18 15 14 9 10 10 10 11 5 2 2 6 4 3 4 2 3 2 1 0 1 2 2 3 1 1 3 1 1 2 4 5 4 9 13 11 1 4 6 8 8 6 14
23 24 28 20 17 24 19 16 16 15 12 13 7 3 4 3 4 4 3 4 4 4 2 4 2 6 5 4 3 4 2 3 1 1 1 2 5 4 8 7 6 9 12 12 15 16 12
18 22 24 26 19 20 21 16 16 18 16 19 7 6 5 3 5 6 4 6 8 5 7 4 5 3 7 5 3 4 6 4 2 4 4 1 3 1 5 4 4 10 13 14 14 15 16
13 19 21 21 22 22 22 21 20 18 20 13 14 10 7 7 5 3 4 4 6 9 2 0 5 5 6 3 3 5 4 3 2 3 7 2 3 2 5 2 7 12 6 9 3 1 3
10 12 17 22 24 24 20 17 23 18 21 24 14 12 7 3 4 4 4 4 4 4 2 3 4 5 6 11 12 8 9 8 5 6 2 4 4 2 3 3 5 2 2 3 1 2 0
11 11 11 17 21 22 19 15 16 23 21 26 19 11 9 3 5 5 9 5 8 5 3 3 2 5 15 7 2 2 2 3 3 4 1 1 3 3 3 3 6 3 1 1 1 1 1
13 12 11 13 17 20 16 13 15 19 23 20 23 19 7 8 4 5 6 7 4 4 3 2 6 14 9 4 2 4 4 2 3 3 3 2 1 5 2 4 5 4 4 3 3 6 5
14 15 14 13 15 17 16 16 13 22 23 20 19 23 9 5 8 10 4 5 7 5 3 5 6 5 6 3 4 5 3 1 3 5 5 3 3 10 8 5 4 4 6 4 1 2 5
15 16 15 15 16 16 21 20 13 17 20 22 19 18 15 6 9 8 8 6 7 6 4 9 6 4 3 5 4 3 4 3 2 2 3 6 6 4 4 5 7 10 5 4 2 2 2
13 15 11 12 14 17 18 14 10 14 20 21 20 19 17 9 6 8 8 8 8 9 7 16 2 4 6 3 2 2 3 3 3 3 1 4 3 2 5 0 3 9 2 4 3 2 4
Wind_Direction
73 57 46 34 27 25 25 26 29 29 34 30 22 23 13 7 10 6 360 4 359 357 356 345 333 21 116 84 87 29 16 5 356 18 88 113 93 110 122 109 96 99 121 92 104 93 99
101 57 31 21 8 18 21 18 14 11 21 22 14 11 4 2 7 3 0 4 356 1 4 6 76 131 135 127 79 40 27 21 32 111 112 132 137 122 109 102 87 112 125 127 128 139 135
194 205 296 349 341 6 3 9 4 4 5 9 7 360 359 358 357 357 358 359 357 8 25 44 78 110 123 116 104 36 30 47 78 111 110 116 126 133 130 132 121 126 141 136 136 161 139
213 224 256 281 322 356 353 355 355 357 358 0 358 353 348 351 353 352 358 354 358 17 35 61 88 126 93 110 74 46 48 57 83 101 116 114 119 109 53 116 73 143 219 189 135 165 157
222 224 229 264 296 323 341 348 349 348 352 352 346 344 346 349 348 349 354 355 0 21 45 49 70 132 102 109 71 49 56 75 97 105 112 116 123 90 108 174 172 187 221 205 156 210 153
208 219 238 239 274 305 323 330 330 341 342 340 341 344 349 349 348 352 353 358 12 43 37 79 78 122 108 38 42 23 16 91 99 114 78 65 63 146 142 207 252 216 222 201 209 162 202
223 203 209 233 249 288 317 327 332 336 339 337 340 343 347 350 351 355 359 357 20 19 46 72 48 80 74 96 58 36 61 89 106 77 62 31 233 223 85 298 360 36 253 259 144 97 211
224 242 240 221 230 252 294 322 332 331 331 334 338 342 343 350 353 358 10 38 50 111 78 61 63 71 68 67 89 39 65 97 73 100 319 187 229 65 103 112 148 183 244 247 243 243 253
217 225 241 260 258 266 286 300 312 320 325 331 336 343 344 345 355 358 26 50 57 70 87 50 61 57 26 49 61 14 58 101 100 120 84 237 113 145 168 172 218 228 242 231 269 187 149
234 240 239 240 260 277 277 275 291 307 318 327 331 339 344 349 359 354 22 23 49 76 157 39 21 27 8 89 59 42 40 89 96 150 163 233 151 197 198 223 216 264 289 219 207 231 259
214 218 235 251 246 255 275 291 296 303 309 315 326 334 339 355 347 3 350 1 22 124 357 80 31 338 37 77 130 355 13 34 192 168 194 106 182 190 219 256 195 16 62 122 233 256 290
225 227 230 233 249 247 255 278 297 304 308 313 323 329 336 340 344 359 345 342 67 206 258 167 212 226 191 49 44 328 7 41 112 139 313 36 33 339 1 59 29 129 212 198 188 243 249
225 230 237 240 250 266 269 267 277 292 303 309 316 326 334 336 317 337 337 349 246 203 62 173 173 55 54 11 58 18 34 16 294 276 210 164 166 109 125 203 154 204 264 284 225 204 264
231 235 237 245 244 252 262 277 287 281 282 290 309 320 319 308 310 323 342 236 222 48 194 119 160 178 226 144 149 20 182 220 126 271 235 253 228 182 34 289 319 191 240 252 290 293 298
239 230 232 235 240 245 243 257 279 285 294 296 292 286 283 273 261 227 98 258 248 189 110 160 162 215 179 177 249 262 205 200 131 218 227 219 228 105 44 344 314 148 216 21 289 269 276
259 249 246 235 231 240 247 250 260 275 281 283 294 290 275 266 220 168 153 241 220 72 122 173 234 273 233 178 210 212 196 148 160 199 270 146 266 56 97 221 79 278 55 217 209 289 279
254 261 261 255 246 240 240 244 252 257 267 272 275 262 234 164 142 152 226 219 171 179 179 205 206 218 223 215 217 208 196 113 152 142 117 166 267 127 214 201 209 162 204 207 294 234 265
225 245 259 262 257 256 242 240 243 240 236 242 229 235 202 169 145 80 195 184 162 172 191 237 248 240 223 181 209 234 237 73 148 165 172 146 208 250 260 114 337 264 258 239 234 239 247
268 247 254 257 261 258 253 238 246 241 224 220 216 207 205 177 208 190 145 191 227 181 202 188 232 272 9 223 243 220 175 46 159 181 175 168 193 287 200 172 178 232 188 170 119 181 246
240 252 259 240 253 255 252 241 244 234 214 206 198 192 160 185 167 140 156 193 189 192 132 104 118 127 156 218 204 278 198 154 236 168 155 180 212 242 266 307 110 210 210 210 212 241 267
237 247 242 246 241 263 247 242 240 237 223 194 200 218 174 177 205 158 173 151 167 189 172 172 200 219 193 208 195 223 178 175 222 177 114 254 250 246 265 271 250 253 250 231 224 243 255
234 232 231 240 236 239 243 255 243 235 196 197 199 172 157 123 131 142 182 206 199 178 170 191 212 160 193 214 216 188 173 206 211 178 191 184 250 250 262 265 265 265 253 247 254 258 262
240 234 231 232 236 239 241 234 242 230 210 203 215 191 155 159 150 166 211 198 203 153 214 156 172 157 197 206 106 100 99 75 129 189 181 201 225 246 278 348 318 273 287 229 201 69 277
251 250 240 235 238 241 238 245 242 236 233 202 217 189 159 194 175 201 170 168 164 204 139 162 165 171 148 133 112 101 81 83 96 67 103 178 192 231 290 294 250 77 69 56 15 261 61
268 263 259 240 238 233 232 247 249 235 228 214 212 197 176 156 161 160 154 132 118 112 96 146 172 150 144 126 148 159 166 169 90 58 59 348 196 238 267 245 324 178 175 118 23 90 131
272 275 278 254 240 218 226 250 259 234 228 224 223 206 186 139 182 122 151 171 150 150 136 94 132 151 155 187 171 229 237 142 191 143 61 101 53 223 171 262 277 76 137 121 99 271 175
279 279 281 257 241 219 231 246 246 227 225 225 215 202 186 138 161 162 157 171 167 147 128 147 159 168 187 199 187 204 217 87 207 186 167 167 207 220 226 252 270 135 143 132 206 35 169
288 286 276 259 244 220 226 239 239 225 239 224 205 190 195 181 162 183 166 158 159 169 173 149 126 190 176 210 201 178 204 181 188 125 186 190 186 196 193 219 251 158 139 220 89 176 237
305 301 285 237 213 203 211 219 223 242 235 214 186 184 193 194 148 155 165 178 181 174 159 167 132 155 169 143 201 145 159 166 162 221 175 218 245 212 225 205 119 175 179 221 241 226 273